Change the Weather History Date:

Wednesday, March 6, 2013

  Actual Average Record
Temperature  
Mean Temperature 20 °F -  
Max Temperature 30 °F 38 °F 63 °F (1974)
Min Temperature 10 °F 14 °F -13 °F (1960)
Degree Days  
Heating Degree Days 45    
Moisture  
Dew Point 16 °F    
Average Humidity 74    
Maximum Humidity 85    
Minimum Humidity 60    
Precipitation  
Precipitation 0.00 in - - ()
Sea Level Pressure  
Sea Level Pressure 30.31 in    
Wind  
Wind Speed 8 mph (NNW)    
Max Wind Speed 13 mph    
Max Gust Speed -    
Visibility 9 miles    
Events      
Averages and records for this station are not official NWS values.
T = Trace of Precipitation, MM = Missing Value Source: NWS Daily Summary

Daily Weather History Graph

Daily Weather History Graph

Search for Another Location

Airport or City:

Trip Planner

Search our weather history database for the weather conditions in past years. The results will help you decide how hot, cold, wet, or windy it might be!

Date:

Astronomy

Mar. 06, 2013 Rise Set
Actual Time 6:27 AM CST 5:54 PM CST
Civil Twilight 5:58 AM CST 6:23 PM CST
Nautical Twilight 5:24 AM CST 6:56 PM CST
Astronomical Twilight 4:51 AM CST 7:30 PM CST
Moon 2:46 AM CST (3/6) 12:26 PM CST (3/6)
Length of Visible Light 12h 24m
Length of Day
11h 26m
Waning Crescent, 29% of the Moon is Illuminated
Mar 6
Waning Crescent
Mar 11
New
Mar 19
First Quarter
Mar 27
Full
Apr 2
Last Quarter

Hourly Weather History & Observations

Time (CST) Temp. Windchill Dew Point Humidity Pressure Visibility Wind Dir Wind Speed Gust Speed Precip Events Conditions
12:12 AM 26.6 °F 16.8 °F 19.4 °F 74% 30.16 in 10.0 mi North 10.4 mph - N/A   Overcast
12:54 AM 25.0 °F 15.5 °F 19.0 °F 78% 30.22 in 10.0 mi North 9.2 mph - N/A   Overcast
1:54 AM 25.0 °F 15.5 °F 19.0 °F 78% 30.23 in 10.0 mi North 9.2 mph - N/A   Overcast
2:54 AM 25.0 °F 15.5 °F 19.0 °F 78% 30.24 in 10.0 mi North 9.2 mph - N/A   Overcast
3:54 AM 24.1 °F 16.0 °F 18.0 °F 77% 30.25 in 10.0 mi NNW 6.9 mph - N/A   Overcast
4:54 AM 24.1 °F 13.7 °F 18.0 °F 77% 30.28 in 10.0 mi NW 10.4 mph - N/A   Overcast
5:54 AM 24.1 °F 15.2 °F 18.0 °F 77% 30.29 in 10.0 mi NNW 8.1 mph - N/A   Overcast
6:54 AM 25.0 °F 16.3 °F 18.0 °F 75% 30.30 in 10.0 mi NNW 8.1 mph - N/A   Overcast
7:54 AM 25.0 °F 16.3 °F 19.0 °F 78% 30.32 in 10.0 mi NW 8.1 mph - N/A   Overcast
8:54 AM 25.0 °F 16.3 °F 19.0 °F 78% 30.34 in 10.0 mi NW 8.1 mph - N/A   Overcast
9:54 AM 26.1 °F 15.0 °F 19.0 °F 75% 30.34 in 10.0 mi NW 12.7 mph - N/A   Overcast
10:54 AM 27.0 °F 16.7 °F 19.9 °F 75% 30.34 in 10.0 mi NW 11.5 mph - N/A   Overcast
11:54 AM 27.0 °F 16.1 °F 21.0 °F 78% 30.34 in 10.0 mi NW 12.7 mph - N/A   Overcast
12:54 PM 28.9 °F 19.8 °F 19.9 °F 69% 30.33 in 10.0 mi NW 10.4 mph - N/A   Overcast
1:54 PM 30.0 °F 21.7 °F 19.0 °F 64% 30.32 in 10.0 mi NNW 9.2 mph - N/A   Overcast
2:54 PM 30.0 °F 21.7 °F 18.0 °F 61% 30.32 in 10.0 mi NNW 9.2 mph - N/A   Overcast
3:54 PM 30.0 °F 20.5 °F 18.0 °F 61% 30.32 in 10.0 mi NW 11.5 mph - N/A   Mostly Cloudy
4:21 PM 30.2 °F 21.3 °F 17.6 °F 60% 30.27 in 10.0 mi NW 10.4 mph - N/A   Scattered Clouds
4:54 PM 28.0 °F 18.6 °F 16.0 °F 61% 30.32 in 10.0 mi NW 10.4 mph - N/A   Clear
5:54 PM 25.0 °F 18.1 °F 14.0 °F 63% 30.33 in 10.0 mi NW 5.8 mph - N/A   Clear
6:54 PM 25.0 °F - 15.1 °F 66% 30.34 in 10.0 mi Calm Calm - N/A   Clear
7:54 PM 17.1 °F - 12.0 °F 81% 30.35 in 10.0 mi Calm Calm - N/A   Clear
8:54 PM 14.0 °F - 10.0 °F 84% 30.36 in 10.0 mi Calm Calm - N/A   Clear
9:54 PM 15.1 °F - 10.9 °F 84% 30.36 in 8.0 mi Calm Calm - N/A   Clear
10:54 PM 12.0 °F - 7.0 °F 80% 30.36 in 10.0 mi Calm Calm - N/A   Clear
11:34 PM 10.4 °F - 6.8 °F 85% 30.30 in 1.8 mi Calm Calm - N/A   Clear
11:37 PM 10.4 °F - 6.8 °F 85% 30.30 in 0.8 mi Calm Calm - N/A   Clear
11:54 PM 12.0 °F - 8.1 °F 84% 30.36 in 2.0 mi Calm Calm - N/A   Clear